Regional Weather Roundup
Issued by NWS Newport/Morehead, NC

Current Version | Previous Version | Text Only | Print | Product List | Glossary On
Versions: 1 2 3 4 5 6 7 8 9 10 11 12 13 14 15 16 17 18 19 20 21 22 23 24 25 26 27 28 29 30 31 32 33 34 35 36 37 38 39 40 41 42 43 44 45 46 47 48 49 50
000 ASUS42 KMHX 171725 RWRMHX WEATHER ROUNDUP FOR EASTERN NORTH CAROLINA NATIONAL WEATHER SERVICE NEWPORT/MOREHEAD CITY NC 1200 PM EST WED JAN 17 2018 NOTE: "FAIR" INDICATES FEW OR NO CLOUDS BELOW 12,000 FEET WITH NO SIGNIFICANT WEATHER AND/OR OBSTRUCTIONS TO VISIBILITY NCZ015>017-031-032-045>047-102-103-171800- NORTH COAST CITY SKY/WX TMP DP RH WIND PRES REMARKS EDENTON FAIR 43 34 69 NE8 30.26F ELIZABETH CITY FAIR 42 36 79 N16 30.26F KITTY HAWK CLOUDY 39 38 94 N12G17 30.22F MANTEO CLOUDY 40 35 81 NE16 30.24F $$ NCZ045>047-081-094-103-104-171800- CENTRAL COAST CITY SKY/WX TMP DP RH WIND PRES REMARKS FRISCO CLOUDY 43 39 86 N8 30.24F $$ NCZ095-097-098-100-101-171800- SOUTHERN COAST CITY SKY/WX TMP DP RH WIND PRES REMARKS BEAUFORT CLOUDY 48 31 51 NE12 30.21F CEDAR ISLAND NOT AVBL JACKSONVILLE FAIR 53 31 42 E3 30.20F PINEY ISLAND NOT AVBL WILMINGTON FAIR 54 30 40 E7 30.19F $$ NCZ011>013-027>030-043-044-078>080-089-090>093-098-171800- COASTAL PLAIN CITY SKY/WX TMP DP RH WIND PRES REMARKS AHOSKIE CLOUDY 37 31 79 N8 30.27F CLINTON PTSUNNY 42 31 64 N6 30.22F ELIZABETHTOWN NOT AVBL GOLDSBORO CLOUDY 42 27 54 N10 30.22F GREENVILLE FAIR 46 28 49 NE10 30.24F HAVELOCK PTSUNNY 48 28 46 E10 30.23F KENANSVILLE CLOUDY 48 28 46 NE6 30.20F KINSTON FAIR 48 28 46 N9 30.23F NEW BERN FAIR 50 30 46 E8 30.22F RICHLANDS FAIR 52 30 43 E7 30.20F ROCKY MOUNT CLOUDY 38 29 70 N12 30.27F WASHINGTON FAIR 47 31 55 NE9 30.23F WHITEVILLE CLOUDY 46 32 59 CALM 30.19F $$ AMZ130-135-150-152-154-156-158-170-250-252-270-ANZ085-086-088-633-658-670-171800- MARINE OBSERVATIONS STATION/POSITION TIME TEMP WIND PRES WAVE SWELL AIR SEA DIR/SP/G HT/PER HT/PER (UTC) (F) (DEG/KT/KT) (MB) (FT/S) (FT/S) CHESAPEAKE LIGHT NOT AVBL 64 E VA BEACH 1650 44 54 360/ 17/ 21 1024.2 7/11 5/11 DUCK 1700 36 39 10/ 17/ 19 1023.8 2 E DUCK 1700 40 N/A 5/11 3/11 OREGON INLET 1700 40 41 360/ 13/ 18 1024.1 13E OREGON INLT 1648 45 N/A 6/11 7/11 HATTERAS CG 1700 40 48 10/ 13/ 15 1023.8 DIAMOND BUOY 1710 50 72 10/ 16/ 19 1022.6 CAPE LOOKOUT 1700 20/ 15/ 17 1022.9 BEAUFORT LAB 1700 47 46 60/ 7/ 14 1022.8 30 SE NEW RVR IN 1708 53 58 50/ 10/ 14 1022.3 30 SE NEW RVR IN 1700 58 N/A 5/12 3/12 27 SE WRIGHTSVLE 1708 54 58 70/ 10/ 17 1021.7 5 SE WRIGHTSVLE 1608 50 47 90/ 6/ 8 1023.3 225 S CAPE HAT 1650 70 71 150/ 14/ 16 1019.7 8/11 7/11 41 SE CHARLESTON 1710 62 70 190/ 6/ 8 1021.1 $$

USA.gov is the U.S. government's official web portal to all federal, state and local government web resources and services.